Location: ?nandapuram
(16.5396°N, 81.1430°E)
Time: 22:41:39
(UTC+00:00)

GPS 2-15 Rocket1 - Pass Details

Date: 14 April 2026
Orbit: 606 x 651 km, 19.8° (Epoch: 9 May)

Event Time Altitude Azimuth Distance (km) Brightness Sun altitude
Rises 13:03:05 0° 277° (W) 2,881 9.6 -3.8°
Reaches altitude 10° 13:05:30 10° 273° (W) 1,968 7.5 -4.3°
Maximum altitude 13:09:59 51° 197° (SSW) 763 3.6 -5.4°
Drops below altitude 10° 13:14:24 10° 121° (ESE) 1,944 5.0 -6.4°
Enters shadow 13:15:06 - 119° (ESE) 2,207 5.3 -6.6°
